Theta_e
318 320 319 319 321 325 325 324 321 320 318 311 311 313 315 320 320 318 318 318 318 319 318 317 319 322 322 322 322 320 321 325 324 322 329 339 341 341 342 342 341 341 342 342 341 340 340 340 340 340 339 340 339 338 339 340 340 340 339 337 336 336 336 330 328 331 331 333 332 332 327 319 324 329 329 329 330 331 330 330 330 330 331 331 331 331 334 334 334 332 329 328 328 326 325 326 327
322 322 320 320 323 325 325 324 319 315 313 309 311 315 317 319 318 318 318 319 321 319 318 317 318 322 322 321 320 320 326 326 326 330 335 339 339 341 341 341 341 341 342 342 342 341 341 340 339 340 339 339 337 334 336 339 339 337 335 334 334 334 334 331 330 332 332 333 331 330 326 321 324 328 329 329 330 330 330 330 330 330 330 330 331 333 334 334 333 330 327 327 326 325 325 327 328
321 321 320 323 325 325 324 323 317 310 310 308 311 317 319 318 318 319 320 321 321 319 318 318 319 322 320 321 320 320 328 326 328 333 336 339 339 339 340 341 341 341 342 342 342 342 342 340 339 339 339 340 337 332 331 336 335 333 332 332 334 335 334 332 331 332 332 331 329 327 324 320 324 327 328 329 330 330 330 330 330 329 330 330 332 334 334 334 332 329 328 328 327 326 326 327 326
320 319 321 325 326 324 323 322 318 311 308 308 310 317 319 318 319 320 321 321 320 319 319 319 320 322 321 323 322 320 329 328 332 335 336 339 339 340 340 341 341 341 342 342 341 342 341 339 339 339 340 339 339 333 328 328 330 330 331 332 334 335 334 332 332 332 333 331 329 326 321 317 319 324 326 329 330 330 330 330 329 328 329 331 332 332 332 332 331 329 329 329 329 329 327 325 324
321 322 321 326 327 324 322 320 318 313 310 311 311 317 319 318 319 320 321 319 318 319 319 319 321 322 320 322 322 324 330 328 332 336 337 339 341 340 340 341 341 340 342 342 342 342 341 339 339 339 340 340 339 335 328 325 327 329 329 332 333 334 335 333 330 331 334 332 330 326 321 317 316 317 321 328 330 330 329 329 329 328 329 331 332 332 331 330 330 331 331 330 329 329 326 324 323
324 325 322 324 325 322 322 317 314 313 315 317 315 317 319 318 319 320 321 319 318 317 318 319 321 321 320 323 323 327 329 328 332 336 337 339 340 339 340 341 341 341 341 343 342 342 340 338 338 338 339 339 339 336 332 326 325 327 327 329 331 334 336 334 331 330 334 333 331 327 322 318 315 312 315 325 330 329 329 328 328 328 329 331 331 331 330 330 330 331 331 330 329 326 323 323 322
325 325 323 322 322 322 321 314 313 314 316 319 317 317 318 318 318 319 320 319 318 317 317 318 318 319 321 323 323 327 330 330 333 337 338 338 339 339 341 341 341 341 341 343 343 342 339 338 338 338 338 339 339 338 336 330 325 325 325 326 330 335 335 335 333 332 333 332 330 328 324 319 316 310 309 322 329 329 329 328 328 328 329 330 330 330 330 330 330 330 329 328 326 324 322 323 322
323 324 324 323 323 322 319 315 316 318 317 318 318 318 317 318 318 318 319 319 318 317 317 316 317 319 321 321 324 328 329 331 334 336 337 337 338 339 340 341 341 341 341 343 343 342 339 338 338 338 339 338 338 338 338 335 327 324 324 325 330 335 335 335 334 333 332 330 330 329 325 320 316 310 306 319 328 329 328 328 328 327 328 330 329 329 330 330 329 328 327 325 323 324 323 323 321
322 323 323 323 322 319 317 316 316 318 318 318 317 317 317 318 318 318 318 318 317 317 317 317 318 319 319 320 325 327 328 331 333 335 336 336 337 338 340 341 341 341 342 342 342 341 339 338 338 338 339 338 338 338 338 336 329 325 324 325 331 335 335 335 334 334 332 330 331 329 326 321 317 311 305 312 324 328 328 327 327 327 328 329 329 329 329 328 327 327 325 324 324 324 324 323 320
321 322 323 323 320 315 313 314 317 319 319 318 317 316 317 317 317 318 318 318 317 317 319 318 318 317 317 320 323 326 329 330 333 335 335 337 337 338 340 341 341 341 341 342 341 341 340 338 338 338 339 338 338 338 338 336 331 327 324 325 331 335 335 334 334 334 332 331 331 329 326 321 317 311 305 310 320 326 327 327 327 327 328 328 328 327 327 326 325 325 325 324 323 323 323 322 320
322 320 322 321 316 312 311 313 316 319 318 317 317 316 317 317 317 318 317 317 316 317 319 318 317 317 316 319 323 327 330 329 332 336 336 337 337 338 340 340 341 341 341 342 341 341 340 338 338 338 338 338 338 338 337 336 332 327 326 327 330 333 334 334 334 334 333 332 331 330 326 321 317 312 309 312 319 323 325 327 327 326 326 326 326 326 325 325 324 324 323 323 323 323 323 322 320
324 321 321 318 315 314 314 314 316 319 319 317 317 316 317 317 317 316 316 316 316 317 318 317 317 317 317 318 323 327 328 328 333 336 336 337 338 338 340 340 341 341 341 342 342 341 341 339 338 338 338 338 338 338 337 337 333 329 328 329 330 332 333 334 333 333 333 332 331 330 327 321 317 313 308 309 316 321 323 324 325 324 325 325 325 324 324 323 324 323 321 322 322 322 322 321 319
324 322 320 317 318 318 316 316 317 319 318 318 317 316 317 316 316 316 315 316 315 316 317 318 317 317 318 318 322 325 325 329 334 336 336 337 338 339 340 340 341 341 341 342 342 342 342 341 339 338 337 337 338 337 337 337 335 331 330 330 330 332 333 333 333 333 333 332 331 330 328 323 318 313 308 306 310 316 320 321 321 321 322 322 321 320 320 320 321 321 321 320 320 320 320 319 319
325 323 321 319 321 320 317 317 317 315 315 318 317 315 316 316 316 316 316 315 316 316 316 317 317 317 318 318 320 321 324 330 335 335 335 337 338 339 340 341 341 341 341 341 342 342 342 341 340 339 338 337 337 337 336 337 336 333 331 330 330 332 332 333 333 333 333 332 331 330 328 325 320 316 310 306 306 309 314 316 315 314 313 312 310 309 310 311 311 314 316 316 316 317 318 317 317
325 322 321 320 319 318 317 318 317 315 315 318 316 315 316 315 315 315 315 315 315 316 315 315 316 317 317 317 320 321 327 333 334 334 335 337 338 339 339 341 341 341 341 341 341 342 342 341 341 340 339 338 338 338 337 337 336 335 334 331 330 332 333 333 333 333 333 332 331 330 329 327 322 320 315 310 305 305 307 307 305 304 303 302 301 301 301 302 302 304 307 308 310 313 315 316 316
323 322 321 318 315 316 317 318 319 315 316 318 315 315 316 315 315 314 315 314 315 315 314 316 316 316 316 317 321 329 333 333 333 333 335 336 338 338 339 340 340 341 341 341 341 341 341 341 341 341 340 339 340 339 338 337 336 336 335 333 331 331 333 333 333 333 333 332 331 330 330 328 323 321 319 315 309 304 302 301 300 300 300 300 300 300 300 300 300 300 301 303 305 307 310 312 313
321 323 320 315 315 316 317 319 318 315 318 317 314 315 316 315 314 314 313 313 315 315 315 316 316 315 316 314 317 331 335 331 332 333 335 336 337 338 337 339 338 339 340 340 341 341 340 341 341 341 340 340 340 339 339 338 336 336 336 335 333 332 332 333 333 333 333 332 331 331 330 328 325 323 321 319 315 310 306 303 301 301 300 300 300 300 300 300 300 300 300 301 302 304 307 308 309
320 321 317 315 316 318 319 319 318 318 319 316 315 315 315 315 315 314 313 313 314 315 315 315 316 315 315 313 313 328 333 330 332 333 334 335 336 337 336 336 337 338 339 339 339 340 340 340 340 341 341 340 340 339 339 339 337 336 336 336 335 333 333 332 333 333 333 333 331 331 330 329 328 326 323 320 318 315 312 308 305 303 302 301 301 300 301 301 301 301 300 301 302 304 306 308 307
320 321 317 317 319 319 319 319 318 318 318 317 316 315 315 316 315 314 314 315 315 314 316 315 316 315 315 313 313 325 332 331 332 334 334 335 335 336 336 335 336 337 337 338 338 339 339 339 339 340 340 340 340 340 339 339 338 337 337 337 336 336 334 333 333 333 333 333 332 332 331 330 330 328 324 322 320 318 315 313 310 308 306 305 305 304 304 305 304 302 301 300 301 302 305 306 306
320 320 318 318 320 319 317 318 318 316 316 317 316 315 315 316 316 315 314 316 316 315 316 316 316 316 316 315 313 323 331 331 332 334 334 335 335 335 335 335 335 336 337 336 336 337 337 338 339 339 339 339 339 339 339 339 339 338 337 337 336 336 336 335 334 333 333 333 332 332 332 331 330 329 326 323 321 319 316 315 314 313 311 309 310 310 309 309 307 304 302 301 302 303 305 305 306
319 317 317 318 318 319 317 316 316 314 315 317 316 315 315 316 315 315 315 316 317 316 317 317 317 316 317 316 315 323 331 332 331 333 334 334 335 335 335 335 335 335 336 336 336 336 336 336 337 338 338 338 338 338 338 339 339 339 338 337 336 336 336 336 334 333 333 333 333 333 332 332 330 329 327 323 321 318 316 314 313 313 312 311 312 313 312 311 310 309 307 307 307 308 309 309 309
318 316 317 317 317 318 316 315 314 313 314 316 316 315 315 315 315 315 315 315 317 317 317 317 317 317 318 318 318 323 329 331 331 332 333 334 334 335 335 335 336 335 335 336 336 335 335 335 335 337 337 337 337 336 337 338 338 338 337 337 336 336 336 336 335 334 333 333 333 333 332 332 330 328 327 325 323 319 316 315 313 313 313 313 313 314 314 313 313 313 313 313 313 313 313 312 311
316 316 316 315 316 317 315 315 313 313 315 316 316 316 315 315 315 315 315 315 316 316 316 317 316 317 319 320 320 322 326 329 331 332 332 333 334 334 335 335 336 335 334 335 335 335 335 335 334 335 336 335 335 335 336 337 337 337 337 337 336 336 336 336 335 334 334 333 333 333 332 332 330 328 327 327 326 322 320 318 316 315 315 314 314 314 314 314 314 314 315 315 315 315 314 313 312
315 316 316 315 315 316 314 314 312 312 315 315 315 315 315 315 316 316 315 316 316 316 315 315 314 315 318 321 321 322 325 328 330 331 332 332 333 334 334 335 335 334 334 334 334 334 334 333 333 334 334 333 334 334 334 334 335 336 336 336 336 336 336 335 335 334 333 333 333 333 333 332 331 329 328 328 327 326 324 322 318 316 316 315 315 315 315 314 314 315 316 315 315 314 313 312 310
315 316 316 315 315 315 313 313 312 313 314 314 313 314 316 316 315 314 315 316 316 316 314 314 314 313 315 319 320 321 324 327 329 330 331 332 333 334 334 335 335 334 334 333 333 334 334 332 332 333 333 333 333 333 332 333 333 334 334 335 336 336 336 336 335 334 333 333 333 333 332 332 331 330 329 329 328 327 326 323 318 317 317 316 316 316 316 315 315 316 314 313 313 313 312 310 309
316 317 316 315 315 314 313 313 313 313 314 313 314 316 316 314 313 314 316 316 316 315 314 314 314 313 314 316 319 320 322 325 328 329 331 332 333 333 334 334 335 335 333 332 333 334 333 331 330 331 332 332 332 332 331 331 332 333 332 333 335 336 335 336 335 334 334 334 333 332 332 332 331 330 329 329 328 328 327 323 318 317 318 317 316 317 318 318 316 315 313 312 312 311 311 309 307
316 317 316 316 316 315 314 315 314 314 314 313 314 317 316 314 313 315 316 315 314 314 314 314 314 314 314 314 316 319 321 323 326 328 330 331 332 333 333 333 334 335 333 332 333 332 331 330 330 331 332 331 331 332 332 331 331 331 329 328 332 335 335 335 334 333 334 335 334 333 332 332 332 331 330 329 328 328 327 323 319 318 319 317 317 318 319 318 318 317 314 312 312 311 310 308 306
316 316 316 316 316 315 315 315 315 315 315 313 315 316 316 315 314 316 317 314 314 315 315 315 314 315 315 315 315 317 320 322 324 327 328 330 331 332 332 333 333 332 332 332 332 332 331 330 329 330 331 331 331 331 331 331 331 331 329 329 332 333 333 334 334 334 334 334 334 333 332 332 332 331 331 330 329 328 327 324 321 320 319 318 317 317 318 318 318 317 315 313 312 310 308 306 304
316 316 317 317 316 317 316 316 315 315 316 314 315 315 316 316 315 316 316 314 314 315 315 316 315 315 316 316 315 315 317 319 322 325 327 329 329 329 330 332 332 331 331 331 332 331 331 329 329 330 330 330 331 331 330 329 329 330 330 331 333 333 333 333 334 334 334 333 333 333 333 332 332 332 332 331 330 329 327 326 323 322 321 319 317 317 318 318 317 318 316 314 311 308 307 305 302
316 316 317 317 316 316 317 317 315 316 315 314 315 313 314 318 318 317 316 314 315 315 316 316 316 317 316 316 316 315 316 316 319 322 324 326 327 327 327 328 330 330 330 329 330 331 331 330 329 330 330 330 330 330 329 327 327 328 328 329 331 332 332 332 332 333 333 333 333 333 333 332 332 332 332 331 331 329 328 327 325 324 322 321 319 316 317 318 317 318 316 314 310 307 306 305 301
317 317 316 317 315 315 317 316 315 316 314 314 315 313 315 319 319 317 315 314 315 316 317 317 317 317 317 317 317 315 316 316 316 317 319 321 323 325 325 325 326 327 328 328 328 329 330 329 329 329 329 329 328 327 327 326 326 327 327 327 328 330 331 331 331 331 332 333 333 333 333 333 332 332 332 332 331 330 329 328 326 324 321 321 320 316 316 318 318 317 315 314 310 305 305 304 300
318 315 314 317 315 315 318 316 315 317 314 314 316 314 316 319 319 316 314 314 315 316 317 317 317 318 317 317 317 316 316 317 316 316 316 316 318 321 323 323 324 325 325 326 326 328 328 327 326 327 327 326 326 325 325 325 325 325 326 326 326 328 329 329 330 330 331 331 332 332 333 333 332 332 332 331 331 330 329 328 327 325 321 322 322 317 316 318 318 316 314 312 309 306 304 301 298
318 314 313 316 315 315 317 315 314 316 315 315 315 315 318 319 318 315 313 314 315 316 317 317 318 317 318 317 316 317 316 316 317 316 316 315 316 317 319 321 322 322 322 323 324 324 325 325 324 324 324 324 324 324 324 324 324 324 324 325 325 326 327 327 327 329 330 330 331 332 332 332 331 332 332 331 331 330 329 329 327 326 322 322 323 319 317 318 318 316 313 310 309 308 304 300 298
316 315 314 317 317 314 314 315 315 314 315 316 316 316 317 318 318 316 315 315 315 316 317 317 318 318 318 318 318 317 317 317 317 317 316 315 315 315 315 317 319 320 320 320 321 321 323 324 323 323 323 323 323 322 322 322 322 322 321 322 324 325 325 326 326 328 330 330 331 331 331 331 330 331 331 331 331 330 329 328 327 326 324 322 322 319 316 316 317 316 314 309 307 308 306 301 298
315 315 314 315 316 314 314 316 315 315 315 316 317 317 317 317 318 317 317 316 316 317 317 317 317 318 318 318 318 318 318 318 318 319 318 315 315 315 313 314 316 317 318 318 319 320 321 322 322 321 322 322 321 320 320 320 320 319 317 319 322 323 323 325 326 327 329 330 331 331 330 330 330 330 331 331 330 330 329 328 327 326 324 322 321 318 315 315 316 314 314 310 305 305 306 302 298
316 317 316 314 314 314 315 317 314 315 316 316 316 316 317 317 317 318 317 317 317 317 317 318 317 317 317 318 318 319 319 319 319 319 319 316 315 314 313 313 314 315 316 317 318 319 320 321 320 320 320 320 319 319 319 318 318 318 318 320 322 321 321 323 325 326 328 330 331 331 330 330 330 330 331 330 329 329 329 328 327 325 324 322 319 317 314 314 315 314 312 310 306 303 301 301 299
316 316 315 314 314 314 316 318 314 314 315 315 317 317 317 317 317 317 318 317 317 317 317 318 318 318 318 318 318 319 319 320 322 321 318 317 315 314 313 312 313 314 315 316 317 318 319 319 319 319 318 318 318 318 318 318 318 318 318 320 320 320 320 322 324 325 326 328 329 330 330 329 329 330 330 329 328 329 329 328 326 325 323 320 318 316 315 315 314 313 310 308 308 304 299 298 298
316 315 314 314 315 315 317 317 314 314 314 315 316 317 317 317 317 317 317 317 317 317 318 318 318 318 318 319 319 320 319 322 325 322 319 317 315 314 312 312 312 314 314 315 316 317 318 319 319 318 318 317 318 318 318 317 317 316 317 318 319 319 320 321 323 323 324 326 327 328 328 327 328 329 329 329 328 328 328 328 326 325 323 319 317 315 314 313 312 310 310 306 305 305 302 298 297
317 316 315 315 316 316 316 316 315 314 314 315 316 316 316 317 317 317 317 317 317 317 318 318 318 318 318 319 319 320 320 322 323 322 320 317 315 314 312 312 312 313 314 314 315 316 317 318 319 319 318 317 318 318 317 316 315 314 315 318 318 319 320 320 321 322 322 324 326 327 326 326 328 328 329 329 328 328 327 326 325 325 323 319 316 314 312 312 311 310 311 309 304 301 301 298 297
317 317 315 315 318 316 313 314 315 315 314 315 316 316 317 317 317 317 318 318 318 319 319 319 319 319 319 320 320 320 320 321 322 321 320 318 316 315 313 312 312 312 313 314 314 315 317 318 318 318 318 317 318 317 317 316 315 313 315 318 319 318 318 318 320 320 321 325 327 326 324 326 328 328 329 329 328 328 327 325 324 324 323 321 318 316 313 311 311 310 310 311 307 300 297 296 297
317 318 316 315 318 316 314 315 316 315 315 315 317 315 314 316 318 318 320 320 319 319 319 319 320 320 321 321 321 321 321 321 321 321 320 318 316 315 313 312 312 312 312 313 314 315 316 317 317 317 317 317 317 317 316 316 315 315 316 317 318 317 316 317 319 319 321 324 325 325 325 326 327 327 327 328 329 328 327 325 324 324 323 322 319 318 316 314 313 313 311 310 310 306 300 295 296
315 319 319 316 316 317 316 318 316 314 314 316 317 313 310 314 317 318 319 319 319 319 319 319 319 320 321 321 321 322 321 322 321 320 320 319 317 315 314 313 312 312 312 313 314 314 315 316 317 317 317 317 317 317 316 315 315 315 316 316 315 315 315 317 319 320 321 323 324 324 324 324 325 326 326 328 329 327 326 325 324 325 323 320 317 316 316 315 313 313 312 310 311 312 306 298 296
313 317 318 316 317 318 317 318 316 313 315 317 316 313 311 313 314 316 318 318 319 319 318 319 319 319 320 321 321 322 322 322 321 320 318 318 318 316 315 313 313 312 312 312 313 314 315 316 316 316 316 317 317 317 316 315 315 315 315 315 314 315 315 317 319 320 322 323 323 322 322 323 324 324 326 328 328 325 325 324 323 324 323 320 317 315 314 313 313 313 312 311 311 310 305 300 298
315 318 317 316 316 318 319 319 317 316 318 317 316 316 314 313 314 316 319 318 318 318 317 318 319 319 319 320 321 321 321 321 321 320 318 317 317 316 315 314 313 312 312 312 312 313 314 315 316 316 316 316 316 316 316 315 314 314 314 314 314 315 316 317 318 319 320 321 322 321 321 323 324 324 326 327 326 324 323 323 323 323 322 321 319 317 314 312 312 313 311 310 310 306 302 301 300
318 318 317 317 317 319 320 319 318 319 319 316 317 319 317 314 315 316 319 317 317 318 318 318 318 320 321 320 320 320 319 319 318 319 318 317 317 315 315 314 313 312 311 311 312 312 313 314 315 315 315 316 315 315 315 314 313 313 314 314 314 315 316 318 318 318 318 320 320 320 320 322 323 324 325 325 324 323 322 322 322 322 321 321 319 317 316 314 313 313 311 309 307 303 301 302 302
317 316 317 319 319 319 320 319 318 319 319 317 319 320 315 313 313 314 317 317 318 318 317 318 318 319 321 319 321 320 318 318 318 316 316 317 316 314 313 313 312 312 311 311 311 312 312 313 314 314 315 315 315 315 314 313 312 312 313 314 315 316 316 318 318 316 317 318 318 318 320 322 322 323 323 322 322 322 322 321 321 321 321 320 319 317 316 316 315 314 313 310 307 304 302 303 303
317 319 320 319 320 320 319 319 318 316 317 317 319 319 315 314 313 312 315 316 318 319 316 318 319 319 321 320 321 320 318 318 318 316 315 315 314 312 311 311 311 311 310 310 311 311 312 313 313 314 314 314 314 314 313 312 311 311 312 313 314 316 316 317 317 315 315 316 316 316 318 320 321 321 321 321 321 321 322 322 321 321 320 320 319 317 316 316 314 313 311 309 307 306 304 304 304
319 320 318 316 317 319 317 318 319 316 315 316 317 318 318 317 314 312 316 318 316 317 317 317 318 320 322 321 320 318 318 318 317 317 317 315 313 311 310 310 310 310 310 310 310 311 312 312 313 313 314 314 314 313 313 312 311 311 312 313 314 315 316 317 316 315 314 315 315 315 316 317 318 318 320 320 320 321 321 321 320 320 319 319 318 316 315 315 313 311 309 307 306 306 305 304 305
319 317 315 314 313 315 315 317 319 316 315 316 315 316 318 317 315 314 317 318 316 317 318 318 317 319 322 322 320 318 318 318 317 318 318 317 316 315 313 311 310 310 309 309 310 310 311 312 312 313 313 313 313 313 312 312 311 311 311 312 313 314 315 316 315 314 314 315 315 314 314 314 314 314 316 319 320 320 319 318 318 318 318 318 317 316 315 314 312 310 308 306 306 305 304 305 306
317 316 315 314 311 313 315 316 316 315 315 315 314 316 317 314 314 317 317 316 317 317 317 318 319 318 319 322 321 320 319 319 318 318 318 318 318 318 316 313 312 310 310 309 309 310 311 312 312 312 312 313 313 313 312 311 311 311 311 311 312 313 314 314 314 314 314 315 314 314 314 314 314 313 316 319 319 319 318 317 317 317 317 317 316 315 314 314 312 309 308 306 305 305 304 305 306
317 317 316 314 312 312 313 313 313 313 314 314 313 315 315 313 313 316 317 317 317 316 317 317 317 318 319 321 321 320 320 319 318 319 318 318 318 318 316 314 312 312 310 309 309 310 311 311 311 311 312 312 313 312 311 311 311 311 311 311 311 312 313 313 313 314 314 314 314 314 314 315 315 316 317 318 318 318 317 316 316 316 316 316 315 314 312 311 310 308 307 305 304 304 304 305 306
317 319 319 317 315 312 312 313 313 313 314 315 315 315 315 315 315 316 316 316 316 316 316 316 317 317 318 318 319 319 319 317 318 319 319 318 318 316 315 313 312 311 310 309 310 310 310 311 311 311 311 312 312 312 311 310 310 310 310 310 310 311 312 312 312 313 313 312 313 313 313 314 316 317 317 318 317 317 317 316 316 316 315 314 314 313 310 308 307 306 305 304 304 304 304 305 306
318 319 320 318 317 315 313 313 313 313 313 313 314 315 314 313 315 316 315 315 315 316 316 317 317 319 320 321 322 322 320 318 319 319 319 318 317 315 313 312 311 311 310 310 310 310 310 311 311 311 311 311 312 312 311 310 310 310 310 310 309 310 311 311 311 313 312 311 311 312 312 313 316 317 316 316 316 315 315 315 315 314 314 313 313 312 309 306 306 305 304 304 305 305 305 305 305
318 319 318 316 316 316 313 313 314 315 315 314 312 312 312 311 313 316 316 315 315 315 316 317 316 318 320 323 327 326 322 320 320 319 319 318 317 315 312 311 311 310 310 309 309 310 310 310 311 311 311 311 311 311 311 310 309 309 309 309 309 309 310 310 310 311 310 310 311 312 312 313 314 315 314 314 313 314 314 314 313 312 312 312 312 311 308 306 305 305 304 304 305 305 304 304 304
316 317 317 316 316 316 314 314 315 315 317 316 313 312 312 311 312 314 315 315 316 315 315 316 316 317 319 320 324 325 322 322 323 319 318 319 317 315 313 311 310 309 309 309 309 309 310 310 310 311 311 311 311 311 310 310 309 309 309 309 308 309 309 308 309 309 309 310 311 311 312 312 312 312 312 311 311 312 313 313 312 311 311 312 311 309 308 307 306 304 302 302 304 304 304 302 302
314 315 316 316 317 316 314 315 313 313 315 316 316 314 312 314 313 313 314 314 315 315 315 315 315 316 319 319 321 323 322 323 325 322 321 322 319 315 313 311 309 308 308 308 308 309 309 310 310 310 311 311 311 311 310 309 309 309 308 308 308 308 308 307 307 308 308 309 310 310 310 311 312 312 311 310 310 311 312 312 312 311 311 311 309 307 306 306 304 303 301 302 303 304 303 301 300
314 314 315 316 316 315 315 316 314 313 314 314 315 314 312 313 315 315 315 315 314 315 316 316 317 317 319 320 321 322 322 323 324 324 323 323 319 314 311 310 309 308 307 307 308 308 309 309 310 310 310 311 311 310 310 309 308 308 307 307 307 307 307 306 306 307 307 309 309 308 309 311 312 311 309 309 310 311 311 311 311 311 311 310 309 308 307 305 303 301 301 300 302 302 301 299 299
315 314 315 316 316 316 316 317 317 316 315 315 315 315 313 313 315 316 314 314 315 317 318 318 318 319 320 322 322 322 322 322 322 322 322 323 318 313 310 308 307 307 307 306 306 307 308 309 309 310 310 310 310 310 310 309 308 307 307 307 307 307 306 305 305 306 307 308 307 307 309 310 311 310 308 308 309 309 310 310 309 310 310 309 307 308 307 304 300 299 298 298 300 300 298 297 298
Wind_Speed
5 5 3 2 2 4 5 4 3 2 2 1 3 2 4 5 3 4 5 3 2 4 3 2 1 2 2 4 5 5 7 7 6 2 2 5 12 13 11 13 15 14 13 11 12 13 12 12 14 13 12 11 10 10 11 13 13 12 12 12 12 11 12 14 16 15 15 15 15 15 15 17 18 18 18 18 18 18 18 18 18 18 18 18 18 18 16 16 18 18 19 18 18 18 18 18 18
5 5 2 1 2 4 2 2 3 1 2 2 3 2 6 5 3 4 5 3 4 5 3 2 1 0 2 4 4 2 5 8 7 6 7 11 13 12 12 13 14 14 13 12 12 11 11 11 13 13 12 11 10 10 11 12 12 11 12 12 11 11 12 14 15 15 15 14 14 14 15 17 18 17 18 18 18 19 19 19 18 18 18 18 18 18 16 16 18 18 19 18 18 17 18 18 17
4 4 2 3 4 5 1 3 4 1 1 3 4 3 5 5 4 4 6 6 7 6 3 3 1 1 3 4 2 2 3 5 8 9 9 14 12 11 13 13 13 14 13 12 12 11 10 11 12 13 12 12 10 10 11 11 11 11 12 12 12 12 12 14 14 14 14 14 14 14 14 16 17 17 17 18 18 19 19 19 18 18 18 19 18 18 18 18 18 19 19 18 18 18 18 17 17
3 2 2 5 4 4 3 3 3 3 1 3 4 5 5 4 5 7 8 7 7 5 3 3 2 2 4 4 4 2 5 6 8 9 9 11 10 14 15 13 13 13 13 11 12 11 10 12 12 12 13 12 10 10 12 12 12 12 12 13 13 12 11 13 13 14 14 13 13 13 13 15 16 16 17 18 18 19 19 19 18 19 19 19 18 18 18 18 19 19 18 18 18 17 17 17 17
3 2 3 5 4 1 2 1 2 3 3 4 2 6 5 4 6 8 8 7 6 3 2 3 2 3 2 4 4 2 5 7 7 8 10 9 10 16 15 13 13 13 13 12 12 11 11 13 12 13 13 12 10 10 11 12 12 13 13 12 13 12 11 13 13 13 14 13 13 12 12 13 15 15 17 19 18 18 18 18 18 19 19 19 18 18 18 18 19 18 18 18 17 16 16 16 17
1 2 3 4 2 1 3 2 1 1 5 5 3 7 6 5 7 8 8 7 5 2 1 2 1 0 2 1 2 3 4 5 8 7 10 11 12 15 14 14 13 12 13 12 12 11 13 14 13 14 13 12 11 10 10 11 12 12 12 12 14 13 11 12 12 12 13 12 12 11 12 12 13 14 16 19 18 18 18 18 18 18 19 18 18 18 18 18 18 17 17 17 17 15 15 16 18
2 2 2 2 1 1 4 1 2 2 5 5 4 5 6 6 7 9 8 6 4 2 2 2 2 4 2 3 2 5 5 5 8 7 10 13 12 14 14 14 13 13 13 13 12 11 14 14 13 13 12 12 12 11 10 10 10 11 12 12 15 13 11 12 12 11 11 11 11 11 11 11 12 13 15 18 18 18 17 17 18 18 18 18 18 18 18 18 17 16 15 15 16 15 16 17 18
3 2 1 3 2 1 3 1 3 3 4 3 3 4 6 8 7 8 8 5 4 4 4 4 3 5 1 2 1 6 7 6 8 9 12 14 12 14 15 14 14 14 13 13 12 11 14 14 14 13 12 12 12 12 10 9 10 11 11 12 14 13 12 12 11 11 10 10 10 10 11 11 12 13 14 17 17 17 17 17 18 18 17 17 18 18 17 17 17 16 15 15 16 16 17 18 19
3 2 1 3 2 1 2 1 2 3 4 3 2 3 4 7 7 6 7 4 2 3 4 4 4 3 3 4 2 6 8 7 9 10 12 13 12 15 15 14 14 14 13 13 12 12 15 15 14 14 12 12 13 12 10 9 10 10 11 12 14 13 12 11 11 10 10 10 10 10 10 11 12 13 14 15 17 18 17 17 17 17 17 17 18 18 17 17 17 17 17 17 17 17 17 18 19
3 2 2 2 2 1 1 1 2 3 5 3 3 4 5 7 6 5 6 4 2 3 3 4 3 3 1 5 4 4 8 10 9 10 11 12 12 13 14 14 14 14 14 13 12 12 14 16 15 14 13 13 13 12 11 10 9 11 11 13 14 14 12 11 11 10 9 9 10 10 10 11 12 13 13 15 16 17 17 17 17 17 16 17 17 17 17 17 18 17 17 17 16 17 17 17 18
3 2 2 3 3 2 0 1 2 3 5 4 4 5 5 6 7 5 4 2 2 3 4 4 4 3 3 3 4 5 10 11 10 10 11 11 12 13 13 13 14 14 14 13 13 13 15 16 15 14 14 13 12 12 11 10 10 11 12 13 14 13 12 11 11 10 9 9 9 10 11 11 12 13 14 14 15 16 17 17 17 16 16 17 17 17 18 18 18 18 17 17 16 17 17 16 17
4 3 3 4 3 1 3 2 2 3 4 5 6 6 5 6 7 6 6 3 3 4 5 6 1 1 5 3 4 8 11 11 10 11 11 10 12 13 12 12 13 14 14 14 13 14 15 16 16 15 15 14 13 13 12 11 10 11 12 12 13 13 12 11 11 10 9 9 9 9 10 11 12 13 14 14 15 15 16 16 16 16 17 17 17 17 17 18 18 18 17 17 17 17 16 16 16
3 2 4 3 2 2 2 2 1 1 3 5 6 8 6 7 7 6 5 4 4 5 3 5 1 2 4 3 5 8 11 12 11 12 12 10 12 12 11 12 12 13 13 14 13 13 14 15 16 15 15 15 14 13 13 12 11 11 11 11 12 12 12 11 11 10 9 9 9 9 10 11 11 12 13 14 15 16 16 16 16 16 17 16 16 16 17 17 18 18 17 17 17 16 16 16 16
2 1 4 2 1 2 2 2 1 2 3 6 7 9 8 6 5 4 4 5 4 2 2 3 1 2 3 3 6 6 10 14 13 13 12 11 12 12 11 11 10 11 13 14 13 13 14 16 16 16 16 16 15 15 14 13 12 12 11 11 11 11 11 11 10 10 9 9 9 9 10 10 11 12 12 13 14 16 16 16 16 16 16 16 16 16 16 17 17 17 17 17 17 17 17 16 16
2 1 3 3 1 2 2 2 1 3 1 9 8 10 9 4 2 3 3 4 2 5 3 2 1 2 2 0 3 6 13 17 14 14 13 12 12 12 12 11 9 10 12 13 13 12 13 14 16 16 16 16 15 15 14 14 13 13 12 12 11 11 11 11 11 10 10 9 9 9 10 10 10 11 11 12 13 14 15 15 15 15 15 15 15 16 16 16 16 17 17 18 17 17 17 17 16
3 1 3 4 3 2 3 2 1 3 2 9 7 9 9 5 3 4 1 3 1 3 1 2 2 2 4 4 5 9 15 16 14 14 13 13 12 13 13 11 10 9 10 12 11 11 12 12 13 14 16 16 16 15 14 14 15 14 13 12 12 12 11 11 11 11 10 9 9 9 10 10 10 10 11 12 12 13 14 15 15 14 15 15 16 16 16 16 16 17 17 18 17 17 17 17 17
2 2 4 4 4 3 3 4 2 1 3 9 8 9 9 7 5 2 2 2 3 3 3 2 3 2 3 6 6 8 13 14 14 15 14 13 13 13 13 13 14 11 9 11 11 11 11 11 12 12 13 14 14 15 14 14 16 15 14 13 13 13 12 12 11 11 11 10 10 10 10 10 10 10 10 11 11 12 13 14 15 15 15 16 16 17 17 17 17 18 18 18 18 18 18 17 17
3 4 5 4 4 2 2 3 1 1 1 7 9 10 9 7 7 4 2 6 6 3 5 4 3 3 3 8 7 8 11 12 14 15 15 15 14 14 15 15 17 14 11 12 12 12 11 11 12 11 12 13 12 13 14 14 16 16 15 14 14 13 13 12 12 12 11 11 11 10 11 10 10 9 10 11 11 12 12 13 15 16 16 17 17 17 17 18 18 18 18 18 19 19 19 18 18
4 3 5 4 2 2 3 1 2 3 2 4 9 9 8 5 7 7 5 8 8 7 7 8 7 7 8 8 8 10 11 12 14 15 15 16 16 16 17 16 17 16 15 16 15 13 13 13 14 13 12 13 12 12 14 14 15 16 15 15 15 14 14 13 13 13 12 12 11 11 11 11 10 10 10 11 12 12 12 13 15 16 17 17 18 18 18 18 18 18 18 18 19 19 19 19 18
2 2 5 2 2 4 5 3 4 5 4 2 7 6 6 3 4 6 6 7 8 9 8 8 9 10 11 11 11 12 12 13 14 15 15 16 16 17 17 17 17 17 16 18 17 15 15 15 14 15 14 12 12 12 13 14 14 15 16 15 16 15 14 14 14 14 13 13 12 11 11 11 12 11 11 11 12 13 14 15 16 16 17 18 18 19 19 19 19 19 19 18 18 18 17 18 18
1 2 3 2 2 1 4 4 5 6 4 1 5 5 7 4 3 5 6 7 7 9 9 9 9 9 12 13 13 14 14 14 15 15 16 17 17 16 16 16 16 17 16 17 16 16 18 18 15 15 16 13 13 12 12 13 13 15 16 16 16 15 15 15 15 15 14 14 13 11 11 12 12 12 12 11 13 14 16 17 17 18 18 19 20 21 21 20 20 19 18 17 18 18 17 17 17
2 2 2 5 2 1 4 4 4 4 2 0 4 4 5 4 3 7 8 9 4 2 4 5 4 2 9 13 13 14 14 15 16 17 17 18 19 17 16 15 14 15 16 17 18 18 19 19 18 17 17 15 13 12 11 12 11 12 15 16 16 15 15 16 16 17 15 14 13 11 12 13 12 13 13 12 12 14 16 16 16 19 21 21 20 20 20 18 17 16 16 17 17 17 17 17 17
2 2 3 4 3 3 3 3 3 2 1 1 2 1 1 3 7 7 10 13 4 6 6 4 5 4 7 12 13 13 14 15 17 19 20 20 21 20 17 15 15 16 17 18 19 19 19 20 19 19 18 16 15 15 12 13 12 10 12 15 15 15 16 18 18 18 18 15 15 13 13 13 13 14 13 12 13 13 14 13 13 18 21 18 16 16 15 13 14 16 17 17 16 16 16 16 16
4 2 5 3 4 3 3 3 2 1 2 1 2 2 3 7 6 3 8 14 8 3 6 6 7 5 6 10 11 12 13 15 18 19 19 19 20 20 18 16 15 16 16 17 18 19 21 21 21 20 19 18 18 17 14 15 16 12 11 13 15 16 15 17 18 19 19 17 16 14 13 14 15 15 15 14 13 13 13 12 13 17 17 15 14 14 13 13 15 17 17 17 16 16 15 15 15
5 2 5 3 3 4 3 3 2 1 2 2 2 5 5 5 3 3 10 14 10 5 6 4 4 4 5 8 10 11 12 14 16 16 17 17 17 18 17 16 16 17 17 17 17 18 20 21 22 21 20 19 18 18 16 16 17 15 13 12 15 17 16 16 17 19 20 19 19 16 14 15 16 16 16 16 15 14 13 13 14 15 14 14 15 16 17 18 19 18 18 17 17 16 15 15 15
2 4 6 4 4 4 3 2 3 1 1 0 4 7 4 1 3 8 14 11 4 4 5 5 5 5 7 8 10 11 11 13 15 16 17 16 16 18 19 17 17 18 19 19 18 17 18 20 22 21 20 19 17 17 16 15 15 16 15 13 13 16 18 16 16 19 20 21 22 21 18 15 17 17 17 17 16 17 16 14 15 15 13 15 17 19 21 21 20 19 18 18 17 17 16 15 15
3 6 6 5 5 4 2 2 3 1 1 2 5 6 3 2 2 8 6 1 4 4 6 7 7 9 9 9 10 11 12 14 15 15 15 15 16 18 20 20 19 18 18 20 20 19 18 20 23 23 20 19 18 17 17 16 15 15 17 18 16 15 16 16 17 19 20 21 20 22 21 16 16 18 18 18 17 19 18 16 17 16 13 16 19 21 24 22 20 19 19 18 17 17 17 16 15
4 7 7 6 5 4 4 3 4 3 2 2 5 6 5 3 5 11 3 5 3 4 7 8 8 9 10 10 9 10 11 13 15 15 16 17 17 18 20 22 22 20 18 20 20 19 19 21 24 25 22 22 21 19 19 18 17 16 17 21 21 16 14 15 18 19 21 21 19 20 22 19 16 18 20 19 20 20 17 19 23 19 17 18 20 23 26 24 21 20 19 19 18 17 17 16 15
5 4 4 7 5 5 6 5 3 3 2 2 3 6 9 9 12 15 6 6 4 4 6 7 8 8 8 9 8 8 10 12 13 15 17 18 18 18 20 22 21 20 19 19 19 19 20 21 24 26 25 24 23 21 21 20 20 20 18 18 20 19 17 16 16 19 20 21 21 21 22 21 18 18 19 20 24 22 17 22 27 24 23 22 22 25 27 25 23 21 19 19 19 18 18 17 15
5 4 3 4 5 6 7 5 3 3 2 3 2 5 8 10 16 12 7 6 5 6 8 8 8 8 7 8 8 8 10 12 14 16 17 17 17 17 19 20 20 20 17 17 20 20 19 20 22 24 24 24 23 22 22 21 20 21 21 19 18 19 18 17 17 18 18 18 21 24 23 23 20 18 19 21 25 25 20 23 28 27 25 23 24 27 27 26 24 22 21 20 20 19 18 18 16
5 4 2 3 5 3 7 5 4 5 3 4 4 5 7 6 6 7 6 5 6 8 9 9 9 8 7 7 8 9 10 13 15 17 17 17 17 17 18 20 19 20 18 18 21 22 20 19 21 22 23 23 22 22 22 20 18 19 21 20 20 21 17 17 20 21 22 20 19 22 25 25 23 20 20 22 25 27 26 27 29 29 27 25 27 28 28 28 26 24 23 23 22 20 19 18 16
4 4 4 4 4 3 6 4 4 3 2 6 6 5 9 7 3 7 3 3 6 9 9 8 8 8 8 8 8 8 9 12 15 17 18 18 18 17 17 19 19 20 20 19 20 22 21 20 22 22 23 24 22 22 23 20 18 18 18 18 20 22 18 18 22 23 25 26 21 21 24 26 25 23 22 23 25 26 28 29 31 32 30 29 29 30 31 30 28 27 25 24 24 23 21 18 15
4 5 4 5 6 4 4 3 2 1 2 7 9 6 7 4 4 7 4 4 6 7 7 8 8 8 8 8 8 8 8 9 12 15 17 18 19 19 18 18 20 21 21 20 20 23 23 21 24 24 24 26 23 22 25 23 21 19 18 17 18 20 19 18 23 23 22 26 26 24 25 25 25 25 25 24 24 26 28 30 32 34 34 32 31 32 33 31 30 29 27 25 24 24 22 19 16
5 5 4 3 5 5 3 4 3 2 3 6 10 10 11 10 6 4 7 8 7 7 9 11 10 9 9 8 8 8 8 9 10 13 17 19 19 20 20 19 20 21 22 23 22 24 24 22 25 27 25 26 23 21 24 25 26 24 23 20 18 20 19 18 22 24 23 24 25 25 24 24 24 26 27 26 26 27 28 30 33 35 36 34 33 34 34 32 31 30 28 27 24 24 24 22 19
6 6 5 4 4 6 5 2 3 3 5 6 9 10 13 16 15 12 9 10 10 10 12 12 12 12 11 10 10 9 9 10 10 11 15 18 18 19 19 19 21 22 23 23 23 23 23 22 25 28 28 26 23 21 23 25 26 26 26 22 19 21 21 20 22 24 26 28 27 25 22 21 24 26 26 26 26 26 28 32 34 36 38 36 35 35 34 34 33 31 30 28 25 24 24 24 22
2 2 4 5 4 5 3 3 3 1 4 7 11 12 14 15 15 15 13 11 11 12 13 11 11 11 11 11 11 11 10 11 11 11 13 17 18 19 19 19 20 22 22 21 22 23 23 23 25 28 30 27 22 21 22 23 22 21 21 20 20 21 22 25 26 23 24 29 30 28 25 23 25 26 25 25 24 25 29 33 34 36 38 37 37 37 36 36 35 33 32 30 27 24 23 24 24
1 1 2 4 4 3 2 5 4 1 4 8 10 12 15 15 16 16 15 14 14 14 14 13 12 11 11 12 13 12 12 10 8 10 14 16 16 17 17 18 18 19 20 20 23 25 25 25 26 28 29 28 24 22 23 23 23 22 21 20 19 20 22 26 28 26 25 29 30 29 29 27 27 28 29 27 25 26 28 31 33 35 36 38 38 38 38 37 36 34 32 30 29 27 25 24 25
2 3 3 4 5 4 2 5 3 2 2 7 8 11 14 14 16 16 15 16 16 15 15 15 15 14 12 13 14 13 12 8 7 10 13 15 15 16 17 17 18 19 20 22 24 25 25 25 26 26 26 28 26 24 26 28 28 26 23 21 19 19 23 25 26 28 30 30 30 30 29 29 29 30 32 30 28 28 28 29 31 33 35 37 38 37 36 36 36 35 34 31 29 30 28 27 28
4 4 4 4 3 2 2 5 2 2 3 6 6 10 14 14 16 17 16 17 15 14 15 15 14 14 13 14 14 12 11 9 9 10 12 14 16 16 16 16 18 19 19 21 22 22 23 24 24 24 23 26 27 26 29 31 30 28 23 19 17 18 20 23 22 23 28 31 32 32 30 30 30 30 31 31 30 30 29 28 29 32 34 36 37 35 34 35 37 36 36 34 31 29 27 28 29
5 4 4 3 1 1 2 2 2 3 4 5 7 9 13 14 14 17 17 16 14 12 13 13 12 13 15 14 11 10 11 11 10 10 10 12 15 16 16 16 17 18 17 19 21 22 23 25 25 24 24 25 26 27 29 29 27 26 21 16 16 18 18 24 25 23 26 31 32 32 31 31 31 30 30 31 32 32 30 28 28 30 35 38 39 39 38 37 39 39 37 37 34 29 26 27 29
6 6 6 5 2 2 2 2 1 5 4 3 7 8 9 10 10 10 8 8 10 9 10 10 11 13 13 11 10 10 11 11 10 10 8 10 13 15 16 16 16 17 18 20 22 23 23 23 24 24 23 23 24 26 28 27 24 21 20 19 19 20 19 23 28 28 30 33 32 33 33 32 31 30 31 32 33 33 33 31 28 29 34 39 41 42 43 41 41 41 40 39 37 34 30 28 28
5 7 7 9 7 3 2 3 3 5 3 1 3 5 6 7 9 9 5 6 8 8 9 11 12 12 11 9 9 10 10 10 9 9 8 8 11 14 15 16 17 18 19 21 22 22 21 20 22 22 21 21 21 23 27 28 24 22 23 22 20 20 20 25 32 34 35 35 33 33 32 31 31 32 33 32 33 33 33 31 28 29 33 39 41 41 42 41 42 42 41 41 39 37 35 29 28
4 2 2 6 7 4 3 3 2 4 2 1 1 4 6 8 12 12 7 7 9 8 10 12 12 11 9 8 8 8 8 7 7 7 8 8 10 11 13 15 17 17 17 18 18 19 19 18 19 21 20 19 19 20 24 26 24 22 22 21 20 21 19 24 33 35 35 36 34 32 31 30 32 34 34 33 32 31 31 29 27 28 32 37 39 38 39 40 42 43 41 41 40 37 35 30 28
2 1 1 0 2 3 3 3 4 3 4 2 3 3 5 7 13 11 3 5 11 10 12 13 12 10 9 8 7 6 5 4 4 5 6 7 9 9 11 12 14 14 13 14 15 16 18 18 18 20 19 18 18 19 22 25 25 22 20 20 21 22 18 19 26 29 30 34 33 32 30 31 33 34 34 33 32 31 30 28 26 27 31 36 38 39 39 39 40 42 41 40 40 36 34 30 28
1 1 1 3 3 2 2 2 3 1 3 5 5 5 5 6 10 12 6 7 12 11 11 12 10 8 6 6 4 3 2 2 2 3 3 4 6 7 8 8 10 11 12 14 16 16 18 18 18 19 19 18 18 20 22 26 27 22 18 19 20 20 19 17 19 22 27 31 32 31 30 31 33 33 34 33 32 32 31 29 28 29 32 35 37 37 38 39 40 42 41 40 39 35 34 30 26
3 4 4 6 4 3 2 2 2 1 4 7 6 9 6 6 8 10 8 7 9 9 8 5 2 2 3 4 3 2 2 2 2 2 2 2 3 4 4 6 7 10 12 14 15 16 17 18 18 19 20 19 18 20 23 26 28 23 18 19 20 20 19 19 18 19 25 30 30 30 31 32 34 34 34 33 32 32 32 30 29 30 33 34 35 36 37 40 40 41 42 42 41 38 34 29 25
6 6 5 4 3 2 1 2 1 3 6 4 5 10 7 7 5 8 7 3 3 4 3 3 5 4 4 3 3 3 2 3 3 2 3 3 4 4 4 6 7 9 10 12 13 14 15 17 18 19 20 19 18 20 22 25 28 25 20 20 21 20 20 23 22 20 24 28 28 29 31 32 33 34 35 34 34 33 32 31 31 32 34 34 35 36 37 40 40 39 41 42 41 39 34 30 25
3 3 3 2 2 2 3 3 3 5 6 0 1 2 6 8 5 5 4 2 1 3 3 3 4 5 6 4 4 4 2 2 3 3 4 5 5 5 6 7 8 9 10 12 13 13 15 16 17 18 19 19 18 18 21 23 26 25 22 21 21 21 22 25 26 24 25 28 29 29 30 31 32 33 35 35 35 34 33 32 33 33 34 35 36 37 36 38 38 38 40 41 39 36 32 29 26
3 4 4 3 3 3 5 5 5 6 3 2 1 2 5 10 7 6 6 5 6 7 5 4 3 2 4 5 5 4 3 3 3 3 4 4 5 5 7 8 9 10 11 12 13 14 14 15 17 18 19 20 18 18 20 22 23 23 23 22 21 22 24 25 27 27 25 27 30 30 30 32 31 31 34 36 35 34 33 33 33 34 35 36 37 38 37 37 38 38 40 40 39 36 32 29 27
7 7 6 6 5 5 7 6 4 4 1 1 0 1 5 10 6 10 14 11 11 10 6 5 6 8 6 3 6 5 5 4 3 4 3 4 4 5 7 9 10 11 11 12 13 14 14 14 16 17 18 19 19 18 19 21 22 22 23 23 21 23 25 25 27 29 28 28 29 31 32 33 33 33 34 35 35 33 33 33 33 34 35 35 36 37 37 37 38 39 40 39 39 36 32 29 28
9 8 6 7 6 6 7 5 4 4 0 2 2 2 5 5 1 3 6 4 7 8 6 6 6 7 7 3 4 5 6 6 5 5 5 5 5 6 7 8 9 10 11 12 12 13 14 14 16 18 18 19 20 19 19 20 21 21 22 23 21 22 24 25 28 30 30 29 30 32 32 33 34 34 34 34 34 34 34 33 33 33 34 34 35 35 36 36 37 37 38 37 36 33 31 29 29
7 5 6 7 5 6 5 1 1 2 2 2 5 4 6 5 4 5 4 2 5 6 5 6 7 5 4 5 6 7 7 7 5 6 6 6 6 7 7 7 8 9 10 12 13 14 15 14 16 18 18 19 20 20 20 19 20 19 21 23 23 22 24 26 29 31 30 29 31 32 31 32 33 32 32 33 34 34 34 33 33 34 34 34 34 33 34 34 35 35 35 34 33 31 30 30 29
5 5 7 3 1 3 5 1 3 1 5 6 5 7 9 7 9 11 13 13 12 11 8 7 7 6 4 5 6 6 5 5 5 6 5 5 6 7 8 8 8 10 11 13 14 15 16 15 16 17 17 18 19 20 20 18 18 19 21 23 24 23 25 27 28 30 30 29 31 31 30 31 33 31 32 34 35 35 34 34 35 35 34 34 33 33 34 33 33 33 32 32 33 32 31 30 29
3 5 5 2 4 2 4 4 2 3 8 6 6 11 11 7 7 4 8 11 11 9 7 7 8 8 7 8 7 3 3 4 4 5 5 5 6 7 8 9 9 10 12 13 14 15 16 16 17 17 18 19 20 20 20 19 19 19 21 23 24 24 25 26 27 28 29 28 30 31 31 31 32 31 32 33 34 35 34 35 35 34 33 33 33 33 34 33 32 32 30 30 32 33 31 29 29
1 2 1 1 2 4 5 6 6 7 8 6 9 14 11 9 10 4 3 5 5 5 5 5 8 9 8 9 8 4 3 4 5 5 5 5 6 7 8 9 10 11 12 13 14 15 16 16 17 17 18 19 20 20 20 20 20 20 20 21 22 23 24 25 28 29 30 30 30 31 32 31 30 29 32 34 34 34 34 34 34 33 32 33 33 34 35 33 31 30 29 29 31 31 30 28 28
1 3 2 1 2 4 5 6 6 7 8 7 9 11 9 9 11 11 9 9 8 8 7 7 8 7 5 4 4 5 5 5 5 5 6 5 5 6 8 8 9 10 11 12 13 14 15 16 16 17 17 18 19 20 21 20 20 20 21 20 21 23 24 25 28 31 32 32 31 30 31 30 28 29 31 33 33 33 33 33 33 34 33 33 34 34 34 32 31 29 29 29 30 30 29 28 28
5 5 6 5 3 1 2 4 6 6 7 7 8 9 9 7 6 8 9 7 6 5 4 5 6 6 2 2 3 5 5 5 4 4 4 4 5 6 8 8 9 10 10 11 12 13 14 16 16 17 17 18 20 21 21 20 20 20 21 21 21 23 25 26 28 31 31 31 31 30 30 29 29 30 31 31 31 32 33 33 33 34 34 34 34 33 32 31 30 29 28 28 30 30 28 28 28
9 9 10 10 8 5 4 7 6 4 5 5 6 7 10 8 2 3 5 3 3 3 3 4 5 6 3 2 3 4 5 5 5 3 3 3 5 6 8 8 9 10 11 12 13 14 15 16 17 17 18 19 20 22 22 21 20 21 22 22 22 23 26 27 29 30 30 30 30 30 31 30 31 31 31 31 31 31 32 32 32 33 34 34 33 32 31 30 29 29 28 29 29 29 28 28 29
Wind_Direction
325 319 325 344 320 269 253 242 246 188 253 54 99 146 113 76 82 139 140 130 137 116 63 45 14 36 54 354 358 18 21 9 10 359 52 107 144 138 134 141 141 140 140 142 150 150 144 148 144 143 143 132 129 132 127 120 115 112 110 107 103 101 101 101 98 92 86 81 79 76 75 80 82 81 82 84 87 90 93 96 97 97 97 95 96 96 93 93 92 89 88 85 83 82 80 79 76
319 313 296 302 272 253 243 219 268 168 211 131 114 77 102 118 164 156 129 109 68 89 96 82 147 28 359 339 315 308 52 39 45 69 93 127 140 133 140 145 146 145 142 145 148 148 145 150 147 142 142 133 131 141 138 128 122 121 117 112 107 103 105 104 99 94 88 83 80 76 75 79 82 82 84 86 89 92 95 97 98 97 97 98 99 99 98 96 93 89 88 86 82 81 82 82 81
318 322 272 259 239 238 235 219 273 298 233 107 111 94 119 157 156 104 75 73 70 92 111 92 167 182 258 260 294 309 82 70 89 97 119 144 148 145 152 151 151 150 142 147 148 145 149 155 151 143 142 136 133 140 143 140 133 129 121 115 109 105 109 107 101 97 92 86 81 76 76 80 84 84 86 89 90 93 95 98 99 99 99 100 100 98 95 92 90 88 87 87 84 83 86 85 84
340 327 245 253 240 226 244 234 301 309 302 72 107 117 144 164 119 85 73 77 85 111 116 139 173 108 266 287 355 345 105 99 103 111 135 148 149 150 157 158 156 154 146 147 147 145 157 162 152 145 143 139 138 137 141 144 139 134 124 118 114 112 115 110 104 99 94 89 83 76 74 80 86 87 89 91 92 93 95 98 98 101 102 101 101 99 96 92 90 90 90 90 88 88 89 86 85
30 312 252 261 269 250 287 277 296 294 12 27 83 122 149 140 111 97 94 94 96 115 105 182 176 93 257 304 333 329 105 111 114 125 136 124 128 148 159 161 159 159 154 150 150 152 164 164 150 146 146 142 144 140 137 141 140 135 125 121 119 117 119 114 107 102 96 91 86 79 75 79 85 89 93 94 94 95 96 97 99 101 102 101 101 100 99 96 94 94 94 94 94 94 91 87 86
18 261 229 253 290 344 268 247 224 63 37 2 47 117 138 120 121 115 110 108 107 91 79 216 270 121 208 139 355 24 77 123 129 131 138 130 132 151 159 161 163 161 158 154 152 157 164 163 152 148 149 147 147 143 137 140 142 135 128 125 125 123 124 118 111 106 100 95 90 81 75 77 84 90 96 98 97 97 98 99 101 103 104 103 101 100 99 99 98 97 96 97 97 95 92 89 87
286 233 190 212 173 234 262 288 359 58 50 8 34 109 133 122 124 128 134 134 143 164 190 229 305 263 202 121 136 80 72 100 122 115 127 138 141 153 160 164 165 162 161 156 152 156 164 161 153 151 153 153 151 148 142 143 146 139 131 129 130 128 128 122 115 111 104 100 95 86 78 78 84 89 98 101 100 100 101 102 104 107 107 104 103 103 101 100 99 98 99 100 98 96 95 93 89
271 269 218 249 197 211 275 359 30 38 55 39 41 68 110 131 140 146 158 157 159 163 184 204 249 258 129 132 202 109 108 86 106 107 123 146 150 156 163 168 166 164 163 157 158 161 166 162 157 158 158 157 154 152 147 147 149 144 136 133 133 130 131 127 122 117 110 105 99 92 85 83 86 91 101 104 104 104 104 105 106 109 108 105 105 105 102 101 99 100 100 100 99 99 99 95 92
237 262 227 260 246 184 266 32 73 74 89 113 102 70 95 139 157 164 169 167 150 162 171 175 214 258 126 146 100 118 138 111 116 120 133 153 155 159 166 175 170 166 165 161 167 168 169 166 163 163 161 162 158 155 153 151 151 149 141 138 137 134 135 133 129 123 114 109 103 98 91 88 90 94 102 108 109 108 107 108 109 110 111 110 109 107 105 103 101 99 99 99 98 100 102 99 98
209 246 258 266 263 214 223 144 97 101 110 123 126 134 144 149 166 180 181 169 138 168 129 126 206 249 195 148 112 122 136 128 134 131 142 157 160 166 172 180 174 168 167 166 170 169 173 173 169 167 166 166 161 160 160 155 155 155 146 141 139 138 141 138 134 127 117 113 107 102 94 91 93 97 104 109 111 112 111 111 111 112 113 112 110 108 106 105 103 102 102 101 101 105 105 101 101
211 189 272 265 237 244 281 92 96 111 121 140 144 145 161 162 174 185 198 182 146 182 125 152 214 220 215 151 104 111 124 138 147 142 149 159 164 170 177 182 177 173 170 168 169 171 177 177 174 172 172 171 168 166 165 161 160 161 152 145 144 143 145 142 138 132 124 117 111 105 99 97 97 101 105 107 110 112 113 112 113 114 114 112 111 110 109 108 106 106 105 103 107 109 107 103 102
234 178 213 254 254 311 16 13 80 112 136 167 165 152 168 172 181 188 202 203 171 200 169 180 221 358 209 163 111 127 137 152 150 149 150 155 166 172 180 182 179 178 176 172 169 172 178 179 177 178 178 176 175 173 171 168 163 164 157 151 150 148 147 146 142 137 132 125 119 113 106 102 102 105 107 109 109 110 112 113 115 114 113 113 112 112 111 111 109 107 105 105 112 112 108 105 102
252 199 219 246 333 349 359 332 79 123 190 180 161 150 168 179 193 199 193 202 192 207 175 160 100 300 236 115 117 139 150 158 149 148 149 158 167 170 180 181 181 181 182 179 173 173 177 179 179 182 183 181 182 180 178 174 169 170 164 158 157 152 150 150 148 143 139 135 128 123 115 107 107 109 110 112 113 113 113 113 115 115 115 115 116 114 113 112 111 110 104 107 115 113 110 107 104
287 237 253 249 37 286 296 306 106 250 212 135 133 146 170 188 201 216 199 209 192 163 80 85 9 265 245 141 146 156 156 155 150 148 150 162 166 171 180 179 182 184 186 185 182 179 178 183 182 185 187 185 186 185 184 181 177 177 171 166 164 159 156 155 153 151 148 143 139 133 124 114 112 113 114 117 118 118 117 117 119 119 121 121 120 118 115 112 111 111 105 110 117 115 113 110 107
318 228 266 263 233 240 208 267 329 276 174 122 139 151 170 187 189 224 227 232 118 75 79 98 281 283 307 172 128 130 145 148 146 146 151 162 168 177 180 178 182 186 192 191 190 186 184 186 185 189 189 188 189 187 187 188 186 184 180 173 170 168 163 161 160 159 157 156 152 141 129 118 115 116 117 118 120 122 122 124 124 122 121 119 118 116 115 112 111 111 109 114 118 117 116 113 109
311 250 245 247 243 229 183 206 195 264 134 121 146 154 174 176 171 224 286 329 43 100 181 167 177 277 349 34 73 99 130 141 142 145 154 163 171 179 180 182 185 189 195 193 194 190 189 189 189 193 190 190 191 187 189 190 192 190 187 181 176 176 172 169 170 169 168 169 162 147 135 124 119 119 121 122 124 126 127 127 126 124 121 118 116 116 116 115 114 112 112 114 115 115 114 113 110
286 243 233 233 227 221 173 190 183 256 93 120 151 165 184 172 163 216 62 282 247 153 202 184 154 251 8 84 101 107 126 137 141 149 160 167 172 179 185 189 190 193 192 190 194 192 193 192 192 195 192 193 192 189 192 193 195 194 194 191 183 182 181 178 179 178 176 177 170 155 142 129 122 123 129 131 130 130 131 132 131 128 124 120 119 118 117 115 114 112 112 112 111 111 109 109 108
240 218 226 233 226 216 153 205 186 5 82 143 162 179 197 179 164 170 153 220 225 201 203 192 183 202 127 109 121 131 136 142 150 162 168 173 178 183 189 193 195 198 196 195 197 196 196 197 198 197 194 195 193 192 193 196 198 196 197 197 192 191 189 185 185 186 182 179 176 161 146 137 130 131 138 137 136 137 136 134 131 128 125 123 121 119 117 115 113 112 112 113 112 112 110 108 107
237 226 230 238 231 74 56 343 62 33 352 145 163 187 207 186 157 166 202 211 201 219 212 197 212 199 160 139 143 148 150 156 164 175 178 181 186 189 192 195 198 200 200 202 202 200 198 201 203 202 201 197 195 198 196 198 199 198 200 199 197 197 196 191 189 188 185 183 180 169 155 149 145 147 152 149 143 139 137 135 131 128 126 124 122 118 115 113 111 111 112 114 114 114 113 113 112
242 251 235 233 61 78 66 32 67 57 9 179 168 179 206 187 138 163 216 225 202 224 221 197 211 206 184 163 156 158 161 168 176 186 189 191 193 194 196 196 198 199 200 202 202 199 196 200 202 203 205 201 199 202 201 201 201 201 201 201 199 200 200 195 193 193 191 189 185 179 169 157 157 169 172 157 146 142 140 138 133 130 126 123 121 117 114 112 111 112 113 114 114 113 113 115 115
198 235 255 31 30 95 78 69 72 59 14 262 150 163 206 183 142 187 222 235 218 229 228 212 219 213 185 165 162 167 169 176 184 194 197 199 199 199 202 200 199 200 199 200 202 199 197 199 201 203 204 204 205 206 208 206 205 204 203 203 202 202 202 196 195 197 198 196 189 187 178 162 162 179 178 155 147 149 145 140 136 133 129 126 123 120 117 116 115 114 114 115 117 117 116 116 116
201 198 11 37 346 22 77 75 65 50 6 188 151 177 194 150 193 218 226 235 228 269 239 208 226 210 159 159 165 170 177 183 188 198 202 203 202 203 203 201 199 198 198 199 202 202 199 200 201 203 201 201 207 209 212 209 207 209 208 207 206 206 203 201 202 202 202 200 194 191 182 171 166 170 171 161 154 154 148 143 142 140 136 131 128 125 123 122 120 119 120 122 124 125 124 122 121
241 168 86 58 10 37 73 73 57 10 286 200 179 172 133 189 228 221 225 238 244 45 42 67 68 75 138 155 164 173 183 188 192 200 202 204 203 203 203 199 197 196 198 200 203 205 203 203 203 202 202 205 209 208 210 212 210 211 215 214 212 211 207 207 210 209 207 203 199 196 188 180 173 169 172 172 165 161 156 153 155 150 142 136 136 135 131 128 127 127 128 127 127 126 125 124 121
260 190 112 85 39 53 51 55 70 350 267 304 343 326 246 232 239 208 224 241 243 91 76 71 80 97 144 160 171 184 189 192 199 203 203 207 207 205 203 201 199 196 197 199 201 205 204 204 205 203 204 208 209 207 210 216 215 214 222 223 218 215 212 211 212 213 212 210 205 199 194 187 179 177 179 181 178 174 169 166 166 158 149 147 149 145 141 138 135 132 131 129 129 128 125 124 120
246 187 116 112 73 80 68 68 104 110 262 324 306 253 245 248 294 288 246 244 240 184 129 117 115 129 171 183 188 192 195 199 203 204 205 210 211 208 207 204 202 198 197 198 199 205 204 203 207 206 202 206 208 207 211 217 216 215 218 223 223 218 215 215 214 215 215 215 213 206 200 196 190 185 183 185 185 184 179 171 169 166 160 157 154 154 152 146 139 135 133 132 132 130 129 128 124
210 129 119 128 109 95 94 115 118 129 242 203 237 238 230 277 331 271 251 244 213 157 169 186 189 198 205 203 202 199 200 203 202 203 205 207 208 209 209 207 206 204 201 199 199 201 199 198 205 205 202 206 209 208 210 212 215 217 214 212 222 223 218 217 218 217 214 214 217 215 207 201 201 196 189 188 188 187 184 178 174 170 167 164 162 163 160 151 144 142 139 137 135 134 133 132 128
110 125 116 117 121 117 135 147 129 176 205 186 247 254 216 148 262 254 248 174 134 167 213 208 209 222 222 216 212 208 207 207 203 201 202 202 205 208 209 209 210 208 202 199 200 199 195 196 204 206 201 205 209 210 212 212 215 222 224 218 216 224 224 221 220 219 214 210 215 217 210 203 204 204 198 192 192 191 188 183 177 172 171 171 170 167 163 158 154 151 145 142 142 140 138 134 130
131 135 125 122 137 144 171 177 151 199 176 184 269 283 253 165 222 245 205 96 151 197 220 209 215 228 226 224 216 212 214 212 206 200 201 202 203 205 205 207 209 208 204 202 202 201 198 200 209 210 206 207 209 211 215 219 222 226 230 226 217 216 220 221 220 219 218 216 216 214 210 206 203 206 205 200 198 196 193 188 182 178 177 176 174 172 169 165 160 156 151 148 147 143 140 136 131
139 162 168 146 174 185 177 166 148 223 188 139 291 283 252 209 223 239 190 141 167 200 230 219 222 228 225 224 215 213 215 212 206 205 208 207 204 204 205 207 206 205 208 207 202 201 201 203 210 211 209 210 211 214 221 227 230 227 228 228 222 215 212 217 221 221 221 222 219 213 209 206 205 207 207 206 204 201 198 194 192 189 184 181 181 179 176 170 164 162 159 154 150 146 144 140 135
152 191 241 160 203 204 170 151 148 219 159 126 253 272 257 219 220 221 154 159 196 227 245 240 237 234 226 220 213 217 214 210 209 209 210 210 209 207 209 210 205 203 205 205 203 203 202 203 207 209 210 212 217 222 224 229 230 227 226 227 228 223 215 215 221 223 222 221 219 218 215 210 209 210 209 210 206 204 204 200 199 197 188 185 188 184 179 174 170 167 165 159 154 151 148 145 141
164 168 244 210 227 176 143 144 167 202 159 149 223 256 271 259 198 152 130 175 208 237 247 246 247 241 233 225 220 223 216 213 214 214 211 209 211 209 211 210 206 204 202 202 204 204 203 203 206 208 210 213 216 218 217 221 224 221 224 225 228 230 226 223 225 226 224 220 218 218 214 211 213 213 211 212 208 207 209 204 201 199 190 189 191 186 182 180 175 171 168 163 157 153 149 146 142
174 176 210 208 228 144 126 135 172 205 155 172 209 250 264 266 126 112 124 188 208 240 248 249 252 245 241 235 232 235 228 220 216 217 214 209 210 209 209 208 205 203 202 204 204 203 203 205 210 208 208 210 210 215 215 213 214 215 219 223 226 227 227 229 227 226 226 221 217 216 213 213 217 216 212 211 209 209 209 205 202 200 195 195 196 191 189 186 179 174 170 167 162 157 151 145 141
191 221 219 184 212 200 145 133 152 174 136 189 215 252 275 256 132 128 156 190 209 235 246 253 258 253 247 239 238 239 235 229 219 216 212 207 208 208 208 206 204 204 204 206 204 207 206 204 214 212 210 215 212 217 221 214 213 213 213 219 224 223 223 229 226 222 224 222 220 221 220 220 221 217 216 213 208 208 209 206 204 202 201 200 200 196 194 190 184 179 172 169 167 162 155 149 145
188 214 234 193 212 231 191 136 127 172 212 219 222 239 264 268 260 201 174 182 205 237 253 261 266 262 256 249 244 239 236 234 226 218 208 203 205 206 208 206 205 206 209 210 208 212 209 202 214 217 214 218 214 214 220 220 220 219 220 222 221 220 220 225 226 221 220 220 218 216 216 221 223 220 218 215 209 209 209 206 205 204 204 202 200 198 195 191 187 183 177 171 169 166 162 157 154
205 198 220 217 212 240 248 157 125 186 216 239 239 241 254 263 270 265 235 205 210 241 258 264 267 264 262 256 250 246 239 234 234 228 205 196 199 202 205 204 203 207 211 210 208 210 206 201 212 219 215 214 210 209 215 221 224 226 228 226 220 220 219 218 222 224 223 221 217 216 212 215 221 218 213 211 212 213 208 204 205 205 205 204 199 195 192 189 187 184 180 174 169 168 167 163 159
246 194 224 236 226 231 227 103 84 248 238 246 249 253 260 262 267 269 264 245 233 248 257 260 261 259 259 256 254 250 242 239 236 221 192 186 196 202 201 201 201 206 208 204 203 205 202 200 207 215 216 210 203 202 209 214 217 219 220 217 215 219 218 215 217 219 221 220 221 223 219 215 216 211 205 206 211 214 209 204 204 205 206 203 197 193 192 191 189 186 181 177 170 164 164 165 162
2 355 260 247 251 242 149 99 90 60 269 258 252 259 265 269 271 270 272 267 258 255 254 253 252 250 250 249 250 246 242 242 216 190 188 189 196 199 199 200 197 201 204 199 200 203 202 200 203 210 212 208 202 200 205 207 207 208 207 207 214 216 212 212 215 216 218 220 222 224 223 222 221 214 210 211 213 218 215 207 204 204 204 202 197 194 193 191 190 187 181 178 175 169 164 165 163
277 271 268 248 247 249 107 95 116 129 269 268 271 274 269 268 271 271 269 264 258 253 250 249 248 248 248 247 247 245 244 234 184 178 189 188 190 192 194 199 196 198 202 200 201 203 202 200 203 206 205 204 203 203 207 210 212 212 209 207 212 213 209 211 215 218 221 223 223 224 226 227 225 222 220 220 220 220 216 210 207 207 205 201 198 194 192 190 188 187 183 178 177 177 172 167 164
256 249 259 257 246 239 122 99 116 162 247 277 299 294 279 272 269 265 260 256 253 248 247 249 251 252 250 248 248 245 247 235 208 206 196 180 183 187 189 196 199 202 203 201 202 202 200 201 203 203 200 202 202 205 212 216 217 217 213 209 210 209 211 212 213 215 219 223 225 225 229 229 225 224 225 222 220 216 212 211 210 209 207 202 197 194 192 190 189 189 188 184 178 175 172 171 170
237 238 251 249 152 251 231 103 109 199 240 290 308 297 283 276 264 255 249 248 254 253 250 251 251 252 251 252 255 251 248 243 231 229 207 178 175 180 188 196 200 201 200 200 201 200 200 202 202 200 200 201 201 206 213 215 217 217 214 212 210 208 211 212 210 212 216 220 224 227 229 226 221 221 223 220 217 214 214 215 212 210 209 205 200 197 194 192 192 191 190 189 183 173 169 175 177
227 227 240 248 262 290 285 21 329 241 228 273 292 285 276 275 265 255 238 227 246 248 243 246 239 239 244 246 250 246 244 245 241 239 224 186 176 183 191 194 195 197 199 201 200 200 201 202 202 201 200 201 201 207 212 210 209 207 204 206 207 208 214 212 211 215 219 220 222 224 224 221 219 220 219 216 215 214 215 218 216 213 211 206 202 201 200 198 197 196 194 193 190 185 179 179 183
225 213 233 256 275 302 308 353 333 272 236 181 295 286 274 287 283 273 258 221 235 236 233 243 243 238 233 229 232 231 234 238 236 237 232 205 187 186 187 189 193 198 202 205 203 201 202 202 202 201 201 202 200 204 210 209 204 199 199 202 202 204 209 209 210 214 218 218 219 220 220 220 219 217 214 213 214 215 217 217 216 216 212 204 200 200 200 199 199 198 197 195 196 196 188 179 186
236 201 271 264 267 278 273 295 296 282 294 137 315 300 289 301 288 277 273 253 251 250 250 253 253 249 237 228 228 226 229 230 224 225 225 216 203 190 186 188 194 200 203 204 202 202 202 202 201 200 201 203 199 199 206 207 201 198 201 205 207 207 208 209 211 213 216 217 218 219 220 221 217 211 211 213 214 215 216 216 215 216 213 205 201 199 198 199 200 199 199 199 199 196 188 181 187
228 99 356 183 209 228 236 260 252 288 330 264 204 243 273 287 283 279 270 261 266 258 253 253 250 249 239 229 227 221 226 222 211 216 215 216 213 204 198 194 196 201 199 194 196 200 201 202 201 201 201 202 199 198 202 205 203 199 202 210 216 217 216 215 213 214 218 219 220 220 219 218 215 210 210 212 212 213 214 214 215 213 210 207 205 204 203 201 201 200 200 201 199 194 190 188 189
78 81 81 92 102 136 162 237 254 291 327 272 192 179 247 253 268 283 272 257 272 266 258 259 252 247 232 221 219 196 179 177 195 206 202 204 205 208 208 199 195 193 191 194 199 203 203 202 201 201 202 202 201 200 200 207 209 203 203 211 218 220 219 218 214 215 220 221 221 220 218 217 215 210 209 210 210 211 213 214 214 212 211 210 208 208 208 206 203 202 201 200 198 195 194 195 193
127 138 105 93 106 106 128 239 278 262 265 264 190 177 243 264 249 267 265 252 269 270 264 259 228 196 180 180 172 152 142 151 169 177 167 155 162 174 182 181 182 182 188 198 201 202 201 201 202 203 204 203 201 199 202 210 212 207 208 213 215 217 215 214 212 211 216 217 217 218 217 215 213 209 208 210 212 213 215 217 216 215 214 213 211 209 209 208 208 208 205 201 199 198 198 199 199
142 150 119 115 139 121 199 228 288 267 256 263 180 182 233 277 236 231 246 256 279 270 245 144 126 139 159 155 143 149 149 140 139 144 149 142 142 152 165 177 178 178 186 193 194 196 197 198 202 204 204 204 201 199 202 211 213 211 211 213 214 215 213 212 212 209 211 213 213 214 214 214 214 213 213 213 214 215 217 218 218 218 216 216 214 210 209 210 210 210 207 204 202 201 202 202 203
153 166 163 184 196 176 222 203 175 246 249 207 55 209 248 258 225 209 252 324 279 236 213 164 130 128 140 142 140 146 149 144 144 143 146 152 161 168 179 187 184 181 184 189 191 193 196 198 200 202 204 205 205 202 201 207 212 212 211 213 216 217 216 215 212 210 211 211 212 213 214 216 216 217 217 216 215 216 217 218 219 219 218 216 214 211 211 212 211 210 206 204 203 202 204 204 204
200 193 184 215 228 202 224 212 194 236 235 135 41 350 261 253 241 234 260 274 251 237 226 237 253 216 174 151 147 155 170 176 175 173 164 172 181 179 184 187 184 186 188 190 191 191 194 197 198 202 205 204 205 204 201 204 209 211 211 214 218 219 222 222 217 215 216 214 214 215 215 216 215 215 216 216 216 217 219 221 222 222 222 219 216 215 215 216 214 210 206 204 204 203 204 205 206
195 193 186 207 220 223 233 220 215 243 223 121 190 147 255 267 261 232 235 239 246 254 260 271 276 270 264 190 157 169 187 200 210 209 208 217 215 200 195 190 184 188 191 189 191 191 192 195 198 202 205 204 205 205 202 204 208 210 211 214 217 219 222 225 221 218 219 217 218 219 219 217 214 213 215 217 221 222 224 225 224 222 222 223 222 221 219 219 216 211 206 205 205 205 206 207 209
199 203 201 216 224 238 245 236 246 258 183 149 189 198 238 261 4 208 221 233 255 275 290 283 273 267 274 258 197 197 204 212 222 224 225 229 222 207 198 192 189 189 188 188 189 190 193 196 198 200 202 202 204 204 204 205 208 211 213 215 217 218 221 224 223 220 221 222 223 224 223 218 216 217 222 227 228 227 226 225 223 222 222 223 225 225 221 217 214 210 207 206 206 207 209 210 211
196 200 216 231 237 244 257 308 305 310 335 210 196 237 247 252 303 271 241 238 239 248 256 258 265 258 249 253 239 227 224 222 223 228 230 219 203 196 191 188 190 188 186 189 190 192 194 195 197 200 201 202 204 206 208 208 209 212 216 218 219 219 221 225 225 224 224 225 226 225 221 219 222 228 233 235 232 228 227 225 225 225 225 225 226 225 220 214 211 208 208 209 209 211 214 213 213
174 183 210 219 12 264 248 228 94 72 279 253 214 252 267 277 282 254 231 235 235 230 228 232 257 265 254 255 244 217 205 213 223 228 225 208 190 186 187 183 185 187 187 191 193 194 196 195 196 199 201 203 205 207 209 209 209 213 216 219 221 221 223 226 226 223 224 225 225 224 222 223 228 232 234 234 230 229 228 227 228 229 227 226 226 224 217 211 208 206 207 210 212 214 216 215 214
158 193 202 112 46 311 252 245 224 214 249 256 232 250 267 277 275 220 192 223 236 236 227 212 229 241 246 257 258 233 188 203 223 228 215 199 187 181 182 181 185 189 189 193 197 196 197 197 197 198 200 203 204 205 208 208 209 213 216 218 222 224 226 228 225 220 218 220 222 224 226 228 229 229 231 231 229 229 229 228 228 228 227 225 224 221 216 211 209 207 209 213 215 216 215 213 214
57 293 239 116 228 222 208 224 238 235 241 256 249 250 258 254 256 264 182 209 231 254 254 241 236 229 228 247 261 273 250 215 202 212 209 197 190 183 178 178 183 190 192 195 197 195 197 200 199 201 202 203 203 203 206 208 208 213 216 217 221 224 226 227 225 221 219 221 225 227 229 230 230 231 231 229 228 229 230 230 227 225 226 226 223 219 216 215 214 212 211 213 215 215 212 210 211
32 307 252 210 257 231 213 210 221 237 241 251 258 256 251 243 253 268 265 257 265 277 280 278 273 257 228 227 247 254 250 230 197 195 199 190 180 172 169 174 181 191 196 195 194 194 198 200 201 204 205 204 204 203 203 207 207 211 215 217 219 223 223 225 226 225 224 225 227 228 229 229 231 233 231 229 229 231 233 233 229 225 225 224 221 219 217 217 216 213 213 214 215 214 210 208 208
181 222 212 199 208 247 278 241 221 235 242 243 255 259 257 254 261 269 270 274 282 295 310 297 299 302 272 159 215 238 246 252 242 214 194 173 157 155 163 177 186 194 199 197 196 197 200 203 203 204 205 204 205 203 202 205 207 211 216 217 218 222 223 225 226 225 225 227 228 229 229 230 232 232 230 230 233 235 236 233 229 226 224 223 221 219 219 219 216 214 213 214 213 210 206 204 205
189 202 203 204 201 188 231 238 217 220 244 251 260 268 269 265 268 299 291 314 348 14 8 310 302 305 293 181 194 218 226 246 257 249 209 153 148 157 164 178 187 191 196 197 200 202 203 206 205 203 205 207 206 204 201 202 206 212 217 218 221 223 225 227 227 226 226 228 228 229 230 231 231 231 232 234 236 236 234 231 228 226 224 222 221 220 220 219 215 212 210 211 211 206 200 199 199